Regional Weather Roundup
Issued by NWS

Home | Current Version | Previous Version | Graphics & Text | Print | Product List | Glossary On
Versions: 1 2 3 4 5 6 7 8 9 10 11 12 13 14 15 16 17 18 19 20 21 22 23 24 25 26 27 28 29 30 31 32 33 34 35 36 37 38 39 40 41 42 43 44 45 46 47 48 49 50
162
ASUS43 KBIS 271910
RWRND
NORTH DAKOTA REGIONAL WEATHER ROUNDUP
NATIONAL WEATHER SERVICE EASTERN NORTH DAKOTA/GRAND FORKS ND
200 PM CDT TUE JUN 27 2017

  NOTE: "FAIR" INDICATES FEW OR NO CLOUDS BELOW 12,000 FEET WITH NO
  SIGNIFICANT WEATHER AND/OR OBSTRUCTIONS TO VISIBILITY.

NDZ001>003-009>011-017-272000-
...NORTHWEST NORTH DAKOTA...

CITY           SKY/WX    TMP DP  RH WIND       PRES   REMARKS
WILLISTON      FAIR      88  46  23 W8        29.55S
MINOT          FAIR      83  52  34 S17       29.56F
MINOT AFB      FAIR      82  53  36 S15       29.55F
$$

NDZ018>021-031>035-040>046-272000-
...SOUTHWEST NORTH DAKOTA...

CITY           SKY/WX    TMP DP  RH WIND       PRES   REMARKS
BISMARCK       FAIR      84  56  38 S21G32    29.62F
DICKINSON      FAIR      86  50  28 S14       29.57F
GARRISON         N/A     80  54  40 S18       29.58F
HETTINGER      FAIR      88  55  32 SW15      29.62F
$$

NDZ004>008-012>016-024-026-027-054-272000-
...NORTHEAST NORTH DAKOTA...

CITY           SKY/WX    TMP DP  RH WIND       PRES   REMARKS
GRAND FORKS    FAIR      80  48  32 S23G30    29.73F
GRAND FORKS AF FAIR      78  46  31 S20G28    29.73F
DEVILS LAKE    FAIR      72  49  44 S22G30    29.70F
$$

NDZ022-023-025-028>030-036>039-047>053-272000-
...SOUTHEAST NORTH DAKOTA...

CITY           SKY/WX    TMP DP  RH WIND       PRES   REMARKS
JAMESTOWN      FAIR      74  46  36 S26G36    29.71F
FARGO          FAIR      76  43  30 S25G33    29.79F
WAHPETON       FAIR      70  37  30 S17G24    29.83F
$$




USA.gov is the U.S. government's official web portal to all federal, state and local government web resources and services.